status,avgMeasuredTime,avgSpeed,extID,medianMeasuredTime,TIMESTAMP,vehicleCount,_id,REPORT_ID
OK,93,21,1035,93,2014-08-01T08:10:00,1,20747912,195525
OK,93,21,1035,93,2014-08-01T08:15:00,0,20748361,195525
OK,93,21,1035,93,2014-08-01T08:20:00,0,20748810,195525
OK,78,25,1035,78,2014-08-01T08:25:00,1,20749259,195525
OK,78,25,1035,78,2014-08-01T08:30:00,1,20749708,195525
OK,78,25,1035,78,2014-08-01T08:40:00,0,20750606,195525
OK,30,65,1035,30,2014-08-01T08:50:00,1,20751504,195525
OK,76,25,1035,76,2014-08-01T09:00:00,2,20752402,195525
OK,91,21,1035,91,2014-08-01T09:10:00,2,20753300,195525
OK,69,28,1035,69,2014-08-01T09:20:00,3,20754198,195525
OK,77,25,1035,77,2014-08-01T09:25:00,3,20754647,195525
OK,58,33,1035,58,2014-08-01T09:30:00,2,20755096,195525
OK,77,25,1035,77,2014-08-01T09:40:00,0,20755994,195525
OK,121,16,1035,121,2014-08-01T09:50:00,2,20756892,195525
OK,67,29,1035,67,2014-08-01T10:00:00,0,20757790,195525
OK,75,26,1035,75,2014-08-01T10:20:00,2,20759586,195525
OK,61,32,1035,61,2014-08-01T10:30:00,2,20760484,195525
OK,36,54,1035,36,2014-08-01T10:40:00,1,20761382,195525
OK,32,61,1035,32,2014-08-01T11:20:00,0,20764973,195525
OK,32,61,1035,32,2014-08-01T11:30:00,0,20765871,195525
OK,52,37,1035,52,2014-08-01T11:40:00,2,20766769,195525
OK,47,41,1035,47,2014-08-01T11:50:00,0,20767667,195525
OK,63,31,1035,63,2014-08-01T12:00:00,2,20768565,195525
OK,62,31,1035,62,2014-08-01T12:10:00,2,20769463,195525
OK,48,40,1035,48,2014-08-01T12:20:00,1,20770361,195525
OK,53,37,1035,53,2014-08-01T12:30:00,3,20771259,195525
OK,93,21,1035,93,2014-08-01T12:40:00,5,20772157,195525
OK,63,31,1035,63,2014-08-01T12:50:00,3,20773055,195525
OK,85,23,1035,85,2014-08-01T13:00:00,4,20773953,195525
OK,78,25,1035,78,2014-08-01T13:10:00,5,20774851,195525
OK,148,13,1035,148,2014-08-01T13:20:00,0,20775749,195525
OK,154,12,1035,154,2014-08-01T13:30:00,2,20776647,195525
OK,131,15,1035,131,2014-08-01T13:40:00,1,20777545,195525
OK,131,15,1035,131,2014-08-01T13:50:00,0,20778443,195525
OK,131,15,1035,131,2014-08-01T14:05:00,0,20779790,195525
OK,106,18,1035,106,2014-08-01T14:10:00,1,20780239,195525
OK,106,18,1035,106,2014-08-01T14:15:00,1,20780688,195525
OK,106,18,1035,106,2014-08-01T14:20:00,0,20781137,195525
OK,39,50,1035,39,2014-08-01T14:25:00,3,20781586,195525
OK,36,54,1035,36,2014-08-01T14:30:00,2,20782035,195525
OK,40,49,1035,40,2014-08-01T14:35:00,1,20782484,195525
OK,40,49,1035,40,2014-08-01T14:40:00,1,20782933,195525
OK,86,22,1035,86,2014-08-01T14:45:00,1,20783382,195525
OK,69,28,1035,69,2014-08-01T14:50:00,3,20783831,195525
OK,67,29,1035,67,2014-08-01T15:00:00,0,20784729,195525
OK,67,29,1035,67,2014-08-01T15:05:00,0,20785178,195525
OK,67,29,1035,67,2014-08-01T15:10:00,0,20785627,195525
OK,67,29,1035,67,2014-08-01T15:15:00,0,20786076,195525
OK,67,29,1035,67,2014-08-01T15:20:00,0,20786525,195525
OK,67,29,1035,67,2014-08-01T15:25:00,0,20786974,195525
OK,67,29,1035,67,2014-08-01T15:30:00,0,20787423,195525
OK,71,27,1035,71,2014-08-01T15:35:00,1,20787872,195525
OK,71,27,1035,71,2014-08-01T15:40:00,1,20788321,195525
OK,71,27,1035,71,2014-08-01T15:45:00,0,20788770,195525
OK,42,46,1035,42,2014-08-01T15:50:00,2,20789219,195525
OK,62,31,1035,62,2014-08-01T15:55:00,2,20789668,195525
OK,81,24,1035,81,2014-08-01T16:00:00,1,20790117,195525
OK,81,24,1035,81,2014-08-01T16:05:00,0,20790566,195525
OK,55,35,1035,55,2014-08-01T16:10:00,1,20791015,195525
OK,55,35,1035,55,2014-08-01T16:15:00,1,20791464,195525
OK,55,35,1035,55,2014-08-01T16:20:00,0,20791913,195525
OK,55,35,1035,55,2014-08-01T16:25:00,0,20792362,195525
OK,55,35,1035,55,2014-08-01T16:30:00,0,20792811,195525
OK,81,24,1035,81,2014-08-01T16:35:00,1,20793260,195525
OK,75,26,1035,75,2014-08-01T16:40:00,2,20793709,195525
OK,52,37,1035,52,2014-08-01T16:45:00,2,20794158,195525
OK,38,51,1035,38,2014-08-01T16:50:00,2,20794607,195525
OK,38,51,1035,38,2014-08-01T16:55:00,1,20795056,195525
OK,38,51,1035,38,2014-08-01T17:00:00,1,20795505,195525
OK,38,51,1035,38,2014-08-01T17:05:00,0,20795954,195525
OK,31,63,1035,31,2014-08-01T17:10:00,1,20796403,195525
OK,46,42,1035,46,2014-08-01T17:15:00,1,20796852,195525
OK,46,42,1035,46,2014-08-01T17:20:00,0,20797301,195525
OK,46,42,1035,46,2014-08-01T17:25:00,0,20797750,195525
OK,46,42,1035,46,2014-08-01T17:30:00,0,20798199,195525
OK,46,42,1035,46,2014-08-01T17:35:00,0,20798648,195525
OK,46,42,1035,46,2014-08-01T17:40:00,0,20799097,195525
OK,46,42,1035,46,2014-08-01T17:45:00,0,20799546,195525
OK,46,42,1035,46,2014-08-01T17:50:00,0,20799995,195525
OK,46,42,1035,46,2014-08-01T17:55:00,0,20800444,195525
OK,46,42,1035,46,2014-08-01T18:00:00,0,20800893,195525
OK,46,42,1035,46,2014-08-01T18:05:00,0,20801342,195525
OK,41,47,1035,41,2014-08-01T18:10:00,1,20801791,195525
OK,41,47,1035,41,2014-08-01T18:15:00,0,20802240,195525
OK,41,47,1035,41,2014-08-01T18:20:00,0,20802689,195525
OK,37,53,1035,37,2014-08-01T18:25:00,1,20803138,195525
OK,37,53,1035,37,2014-08-01T18:30:00,0,20803587,195525
OK,37,53,1035,37,2014-08-01T18:35:00,0,20804036,195525
OK,37,53,1035,37,2014-08-01T18:40:00,0,20804485,195525
OK,37,53,1035,37,2014-08-01T18:45:00,0,20804934,195525
OK,37,53,1035,37,2014-08-01T18:50:00,0,20805383,195525
OK,37,53,1035,37,2014-08-01T18:55:00,0,20805832,195525
OK,37,53,1035,37,2014-08-01T19:00:00,0,20806281,195525
OK,37,53,1035,37,2014-08-01T19:05:00,0,20806730,195525
OK,37,53,1035,37,2014-08-01T19:10:00,0,20807179,195525
OK,37,53,1035,37,2014-08-01T19:15:00,0,20807628,195525
OK,35,56,1035,35,2014-08-01T19:20:00,1,20808077,195525
OK,36,54,1035,36,2014-08-01T19:25:00,2,20808526,195525
OK,37,53,1035,37,2014-08-01T19:30:00,0,20808975,195525
OK,37,53,1035,37,2014-08-01T19:35:00,0,20809424,195525
OK,37,53,1035,37,2014-08-01T19:40:00,0,20809873,195525
OK,37,53,1035,37,2014-08-01T19:45:00,0,20810322,195525
OK,37,53,1035,37,2014-08-01T19:50:00,0,20810771,195525
OK,37,53,1035,37,2014-08-01T19:55:00,0,20811220,195525
OK,37,53,1035,37,2014-08-01T22:00:00,0,20816949,195525
OK,37,53,1035,37,2014-08-02T00:00:00,0,20823388,195525
OK,37,53,1035,37,2014-08-02T00:05:00,0,20823837,195525
OK,37,53,1035,37,2014-08-02T00:10:00,0,20824286,195525
OK,37,53,1035,37,2014-08-02T00:15:00,0,20824735,195525
OK,37,53,1035,37,2014-08-02T00:20:00,0,20825184,195525
OK,37,53,1035,37,2014-08-02T00:25:00,0,20825633,195525
OK,37,53,1035,37,2014-08-02T00:30:00,0,20826082,195525
OK,37,53,1035,37,2014-08-02T00:35:00,0,20826531,195525
OK,37,53,1035,37,2014-08-02T00:40:00,0,20826980,195525
OK,37,53,1035,37,2014-08-02T00:45:00,0,20827429,195525
OK,37,53,1035,37,2014-08-02T00:50:00,0,20827878,195525
OK,37,53,1035,37,2014-08-02T00:55:00,0,20828327,195525
OK,37,53,1035,37,2014-08-02T01:00:00,0,20828776,195525
OK,37,53,1035,37,2014-08-02T01:05:00,0,20829225,195525
OK,37,53,1035,37,2014-08-02T01:10:00,0,20829674,195525
OK,37,53,1035,37,2014-08-02T01:15:00,0,20830123,195525
OK,37,53,1035,37,2014-08-02T01:20:00,0,20830572,195525
OK,37,53,1035,37,2014-08-02T01:30:00,0,20831470,195525
OK,37,53,1035,37,2014-08-02T01:35:00,0,20831919,195525
OK,37,53,1035,37,2014-08-02T01:40:00,0,20832368,195525
OK,37,53,1035,37,2014-08-02T01:45:00,0,20832817,195525
OK,37,53,1035,37,2014-08-02T01:50:00,0,20833266,195525
OK,37,53,1035,37,2014-08-02T01:55:00,0,20833715,195525
OK,37,53,1035,37,2014-08-02T02:00:00,0,20834164,195525
OK,37,53,1035,37,2014-08-02T02:05:00,0,20834613,195525
OK,37,53,1035,37,2014-08-02T02:10:00,0,20835062,195525
OK,40,49,1035,40,2014-08-02T02:15:00,1,20835511,195525
OK,40,49,1035,40,2014-08-02T02:20:00,1,20835960,195525
OK,40,49,1035,40,2014-08-02T02:25:00,0,20836409,195525
OK,40,49,1035,40,2014-08-02T02:30:00,0,20836858,195525
OK,40,49,1035,40,2014-08-02T02:35:00,0,20837307,195525
OK,40,49,1035,40,2014-08-02T02:40:00,0,20837756,195525
OK,40,49,1035,40,2014-08-02T02:45:00,0,20838205,195525
OK,40,49,1035,40,2014-08-02T02:50:00,0,20838654,195525
OK,40,49,1035,40,2014-08-02T02:55:00,0,20839103,195525
OK,40,49,1035,40,2014-08-02T03:00:00,0,20839552,195525
OK,40,49,1035,40,2014-08-02T03:05:00,0,20840001,195525
OK,40,49,1035,40,2014-08-02T03:10:00,0,20840450,195525
OK,40,49,1035,40,2014-08-02T03:15:00,0,20840899,195525
OK,40,49,1035,40,2014-08-02T03:20:00,0,20841348,195525
OK,40,49,1035,40,2014-08-02T03:25:00,0,20841797,195525
OK,40,49,1035,40,2014-08-02T03:30:00,0,20842246,195525
OK,40,49,1035,40,2014-08-02T03:35:00,0,20842695,195525
OK,40,49,1035,40,2014-08-02T03:40:00,0,20843144,195525
OK,38,51,1035,38,2014-08-02T03:45:00,1,20843593,195525
OK,38,51,1035,38,2014-08-02T03:50:00,1,20844042,195525
OK,38,51,1035,38,2014-08-02T03:55:00,0,20844491,195525
OK,38,51,1035,38,2014-08-02T06:00:00,0,20851945,195525
OK,38,51,1035,38,2014-08-02T06:05:00,0,20852394,195525
OK,38,51,1035,38,2014-08-02T06:10:00,0,20852843,195525
OK,38,51,1035,38,2014-08-02T06:15:00,0,20853292,195525
OK,33,59,1035,33,2014-08-02T06:20:00,1,20853741,195525
OK,33,59,1035,33,2014-08-02T06:25:00,0,20854190,195525
OK,33,59,1035,33,2014-08-02T06:30:00,0,20854639,195525
OK,33,59,1035,33,2014-08-02T06:35:00,0,20855088,195525
OK,33,59,1035,33,2014-08-02T06:40:00,0,20855537,195525
OK,38,51,1035,38,2014-08-02T06:45:00,1,20855986,195525
OK,38,51,1035,38,2014-08-02T06:50:00,0,20856435,195525
OK,38,51,1035,38,2014-08-02T06:55:00,0,20856884,195525
OK,38,51,1035,38,2014-08-02T07:00:00,0,20857333,195525
OK,38,51,1035,38,2014-08-02T07:05:00,0,20857782,195525
OK,38,51,1035,38,2014-08-02T07:10:00,0,20858231,195525
OK,38,51,1035,38,2014-08-02T07:15:00,0,20858680,195525
OK,38,51,1035,38,2014-08-02T07:20:00,0,20859129,195525
OK,38,51,1035,38,2014-08-02T07:25:00,0,20859578,195525
OK,38,51,1035,38,2014-08-02T07:30:00,0,20860027,195525
OK,38,51,1035,38,2014-08-02T07:35:00,0,20860476,195525
OK,33,59,1035,33,2014-08-02T07:40:00,1,20860925,195525
OK,33,59,1035,33,2014-08-02T07:45:00,0,20861374,195525
OK,33,59,1035,33,2014-08-02T07:50:00,0,20861823,195525
OK,42,46,1035,42,2014-08-02T07:55:00,2,20862272,195525
OK,47,41,1035,47,2014-08-02T08:00:00,3,20862721,195525
OK,41,47,1035,41,2014-08-02T08:05:00,2,20863170,195525
OK,36,54,1035,36,2014-08-02T08:10:00,1,20863619,195525
OK,32,61,1035,32,2014-08-02T08:15:00,1,20864068,195525
OK,84,23,1035,84,2014-08-02T08:20:00,3,20864517,195525
OK,41,47,1035,41,2014-08-02T08:25:00,1,20864966,195525
OK,41,47,1035,41,2014-08-02T08:30:00,1,20865415,195525
OK,41,47,1035,41,2014-08-02T08:35:00,0,20865864,195525
OK,41,47,1035,41,2014-08-02T08:40:00,0,20866313,195525
OK,41,47,1035,41,2014-08-02T08:45:00,0,20866762,195525
OK,82,23,1035,82,2014-08-02T08:50:00,1,20867211,195525
OK,82,23,1035,82,2014-08-02T08:55:00,0,20867660,195525
OK,82,23,1035,82,2014-08-02T09:00:00,0,20868109,195525
OK,82,23,1035,82,2014-08-02T09:05:00,0,20868558,195525
OK,82,23,1035,82,2014-08-02T09:10:00,0,20869007,195525
OK,51,38,1035,51,2014-08-02T09:15:00,3,20869456,195525
OK,78,25,1035,78,2014-08-02T09:20:00,3,20869905,195525
OK,63,31,1035,63,2014-08-02T09:25:00,2,20870354,195525
OK,42,46,1035,42,2014-08-02T09:30:00,1,20870803,195525
OK,42,46,1035,42,2014-08-02T09:35:00,0,20871252,195525
OK,38,51,1035,38,2014-08-02T09:40:00,2,20871701,195525
OK,67,29,1035,67,2014-08-02T09:45:00,2,20872150,195525
OK,90,21,1035,90,2014-08-02T09:50:00,2,20872599,195525
OK,93,21,1035,93,2014-08-02T09:55:00,2,20873048,195525
OK,104,18,1035,104,2014-08-02T10:00:00,1,20873497,195525
OK,37,53,1035,37,2014-08-02T10:05:00,1,20873946,195525
OK,37,53,1035,37,2014-08-02T10:10:00,1,20874395,195525
OK,37,53,1035,37,2014-08-02T10:15:00,0,20874844,195525
OK,38,51,1035,38,2014-08-02T10:20:00,1,20875293,195525
OK,93,21,1035,93,2014-08-02T10:25:00,3,20875742,195525
OK,97,20,1035,97,2014-08-02T10:30:00,2,20876191,195525
OK,102,19,1035,102,2014-08-02T10:35:00,0,20876640,195525
OK,102,19,1035,102,2014-08-02T10:40:00,0,20877089,195525
OK,102,19,1035,102,2014-08-02T10:45:00,0,20877538,195525
OK,44,44,1035,44,2014-08-02T10:50:00,3,20877987,195525
OK,42,46,1035,42,2014-08-02T10:55:00,4,20878436,195525
OK,34,57,1035,34,2014-08-02T11:00:00,1,20878885,195525
OK,53,37,1035,53,2014-08-02T11:05:00,1,20879334,195525
OK,53,37,1035,53,2014-08-02T11:10:00,1,20879783,195525
OK,53,37,1035,53,2014-08-02T11:15:00,0,20880232,195525
OK,39,50,1035,39,2014-08-02T11:20:00,3,20880681,195525
OK,84,23,1035,84,2014-08-02T11:25:00,3,20881130,195525
OK,36,54,1035,36,2014-08-02T11:30:00,3,20881579,195525
OK,38,51,1035,38,2014-08-02T11:35:00,5,20882028,195525
OK,43,45,1035,43,2014-08-02T11:40:00,4,20882477,195525
OK,34,57,1035,34,2014-08-02T11:45:00,1,20882926,195525
OK,34,57,1035,34,2014-08-02T11:50:00,0,20883375,195525
OK,34,57,1035,34,2014-08-02T11:55:00,0,20883824,195525
OK,89,22,1035,89,2014-08-02T12:00:00,1,20884273,195525
OK,68,28,1035,68,2014-08-02T12:05:00,2,20884722,195525
OK,69,28,1035,69,2014-08-02T12:10:00,2,20885171,195525
OK,90,21,1035,90,2014-08-02T12:15:00,1,20885620,195525
OK,90,21,1035,90,2014-08-02T12:20:00,0,20886069,195525
OK,90,21,1035,90,2014-08-02T12:25:00,0,20886518,195525
OK,36,54,1035,36,2014-08-02T12:30:00,1,20886967,195525
OK,46,42,1035,46,2014-08-02T12:35:00,3,20887416,195525
OK,48,40,1035,48,2014-08-02T12:40:00,2,20887865,195525
OK,48,40,1035,48,2014-08-02T12:45:00,0,20888314,195525
OK,48,40,1035,48,2014-08-02T12:50:00,0,20888763,195525
OK,48,40,1035,48,2014-08-02T12:55:00,0,20889212,195525
OK,48,40,1035,48,2014-08-02T13:00:00,0,20889661,195525
OK,48,40,1035,48,2014-08-02T13:05:00,0,20890110,195525
OK,48,40,1035,48,2014-08-02T13:10:00,0,20890559,195525
OK,48,40,1035,48,2014-08-02T13:15:00,0,20891008,195525
OK,40,49,1035,40,2014-08-02T13:20:00,1,20891457,195525
OK,63,31,1035,63,2014-08-02T13:25:00,2,20891906,195525
OK,60,32,1035,60,2014-08-02T13:30:00,2,20892355,195525
OK,53,37,1035,53,2014-08-02T13:35:00,2,20892804,195525
OK,73,26,1035,73,2014-08-02T13:40:00,0,20893253,195525
OK,73,26,1035,73,2014-08-02T13:45:00,0,20893702,195525
OK,73,26,1035,73,2014-08-02T13:50:00,0,20894151,195525
OK,73,26,1035,73,2014-08-02T13:55:00,0,20894600,195525
OK,73,26,1035,73,2014-08-02T14:00:00,0,20895049,195525
OK,73,26,1035,73,2014-08-02T14:05:00,0,20895498,195525
OK,73,26,1035,73,2014-08-02T14:10:00,0,20895947,195525
OK,73,26,1035,73,2014-08-02T14:15:00,0,20896396,195525
OK,34,57,1035,34,2014-08-02T14:20:00,1,20896845,195525
OK,34,57,1035,34,2014-08-02T14:25:00,0,20897294,195525
OK,33,59,1035,33,2014-08-02T14:30:00,2,20897743,195525
OK,33,59,1035,33,2014-08-02T14:35:00,2,20898192,195525
OK,32,61,1035,32,2014-08-02T14:40:00,0,20898641,195525
OK,32,61,1035,32,2014-08-02T14:45:00,0,20899090,195525
OK,32,61,1035,32,2014-08-02T14:50:00,0,20899539,195525
OK,32,61,1035,32,2014-08-02T14:55:00,0,20899988,195525
OK,32,61,1035,32,2014-08-02T15:00:00,0,20900437,195525
OK,32,61,1035,32,2014-08-02T15:05:00,0,20900886,195525
OK,60,32,1035,60,2014-08-02T15:10:00,2,20901335,195525
OK,60,32,1035,60,2014-08-02T15:15:00,2,20901784,195525
OK,39,50,1035,39,2014-08-02T15:20:00,0,20902233,195525
OK,39,50,1035,39,2014-08-02T15:25:00,0,20902682,195525
OK,39,50,1035,39,2014-08-02T15:30:00,0,20903131,195525
OK,35,56,1035,35,2014-08-02T15:35:00,1,20903580,195525
OK,117,16,1035,117,2014-08-02T15:40:00,2,20904029,195525
OK,128,15,1035,128,2014-08-02T15:45:00,1,20904478,195525
OK,128,15,1035,128,2014-08-02T15:50:00,0,20904927,195525
OK,102,19,1035,102,2014-08-02T15:55:00,3,20905376,195525
OK,69,28,1035,69,2014-08-02T16:00:00,4,20905825,195525
OK,36,54,1035,36,2014-08-02T16:05:00,0,20906274,195525
OK,81,24,1035,81,2014-08-02T16:10:00,1,20906723,195525
OK,42,46,1035,42,2014-08-02T16:15:00,4,20907172,195525
OK,42,46,1035,42,2014-08-02T16:20:00,4,20907621,195525
OK,72,27,1035,72,2014-08-02T16:25:00,1,20908070,195525
OK,48,40,1035,48,2014-08-02T16:30:00,1,20908519,195525
OK,48,40,1035,48,2014-08-02T16:35:00,1,20908968,195525
OK,48,40,1035,48,2014-08-02T16:40:00,0,20909417,195525
OK,28,70,1035,28,2014-08-02T16:45:00,1,20909866,195525
OK,28,70,1035,28,2014-08-02T16:50:00,1,20910315,195525
OK,97,20,1035,97,2014-08-02T16:55:00,1,20910764,195525
OK,97,20,1035,97,2014-08-02T17:00:00,0,20911213,195525
OK,97,20,1035,97,2014-08-02T17:05:00,0,20911662,195525
OK,100,19,1035,100,2014-08-02T17:10:00,1,20912111,195525
OK,100,19,1035,100,2014-08-02T17:15:00,0,20912560,195525
OK,85,23,1035,85,2014-08-02T17:20:00,1,20913009,195525
OK,85,23,1035,85,2014-08-02T17:25:00,1,20913458,195525
OK,85,23,1035,85,2014-08-02T17:30:00,0,20913907,195525
OK,38,51,1035,38,2014-08-02T17:35:00,1,20914356,195525
OK,38,51,1035,38,2014-08-02T17:40:00,1,20914805,195525
OK,36,54,1035,36,2014-08-02T17:45:00,1,20915254,195525
OK,36,54,1035,36,2014-08-02T17:50:00,1,20915703,195525
OK,36,54,1035,36,2014-08-02T17:55:00,0,20916152,195525
OK,36,54,1035,36,2014-08-02T18:00:00,0,20916601,195525
OK,36,54,1035,36,2014-08-02T18:05:00,0,20917050,195525
OK,36,54,1035,36,2014-08-02T18:10:00,0,20917499,195525
OK,36,54,1035,36,2014-08-02T18:15:00,0,20917948,195525
OK,36,54,1035,36,2014-08-02T18:20:00,0,20918397,195525
OK,36,54,1035,36,2014-08-02T18:25:00,0,20918846,195525
OK,90,21,1035,90,2014-08-02T18:30:00,1,20919295,195525
OK,84,23,1035,84,2014-08-02T18:35:00,1,20919744,195525
OK,84,23,1035,84,2014-08-02T18:40:00,1,20920193,195525
OK,84,23,1035,84,2014-08-02T18:45:00,0,20920642,195525
OK,84,23,1035,84,2014-08-02T18:50:00,0,20921091,195525
OK,84,23,1035,84,2014-08-02T18:55:00,0,20921540,195525
OK,84,23,1035,84,2014-08-02T19:00:00,0,20921989,195525
OK,84,23,1035,84,2014-08-02T19:05:00,0,20922438,195525
OK,42,46,1035,42,2014-08-02T19:10:00,1,20922887,195525
OK,42,46,1035,42,2014-08-02T19:15:00,1,20923336,195525
OK,42,46,1035,42,2014-08-02T19:20:00,0,20923785,195525
OK,42,46,1035,42,2014-08-02T19:25:00,0,20924234,195525
OK,42,46,1035,42,2014-08-02T19:30:00,0,20924683,195525
OK,42,46,1035,42,2014-08-02T19:35:00,0,20925132,195525
OK,42,46,1035,42,2014-08-02T19:40:00,0,20925581,195525
OK,42,46,1035,42,2014-08-02T19:45:00,0,20926030,195525
OK,42,46,1035,42,2014-08-02T19:50:00,0,20926479,195525
OK,42,46,1035,42,2014-08-02T19:55:00,0,20926928,195525
OK,40,49,1035,40,2014-08-02T20:00:00,1,20927377,195525
OK,40,49,1035,40,2014-08-02T20:05:00,1,20927826,195525
OK,40,49,1035,40,2014-08-02T20:10:00,0,20928275,195525
OK,40,49,1035,40,2014-08-02T20:15:00,0,20928724,195525
OK,40,49,1035,40,2014-08-02T20:20:00,0,20929173,195525
OK,40,49,1035,40,2014-08-02T20:25:00,0,20929622,195525
OK,40,49,1035,40,2014-08-02T20:30:00,0,20930071,195525
OK,40,49,1035,40,2014-08-02T20:35:00,0,20930520,195525
OK,40,49,1035,40,2014-08-02T20:40:00,0,20930969,195525
OK,40,49,1035,40,2014-08-02T20:45:00,0,20931418,195525
OK,40,49,1035,40,2014-08-02T20:50:00,0,20931867,195525
OK,40,49,1035,40,2014-08-02T20:55:00,0,20932316,195525
OK,40,49,1035,40,2014-08-02T21:00:00,0,20932765,195525
OK,40,49,1035,40,2014-08-02T21:05:00,0,20933214,195525
OK,40,49,1035,40,2014-08-02T21:10:00,0,20933663,195525
OK,40,49,1035,40,2014-08-02T21:15:00,0,20934112,195525
OK,40,49,1035,40,2014-08-02T21:20:00,0,20934561,195525
OK,40,49,1035,40,2014-08-02T21:25:00,0,20935010,195525
OK,40,49,1035,40,2014-08-02T21:30:00,0,20935459,195525
OK,40,49,1035,40,2014-08-02T21:35:00,0,20935908,195525
OK,40,49,1035,40,2014-08-02T21:40:00,0,20936357,195525
OK,40,49,1035,40,2014-08-02T21:45:00,0,20936806,195525
OK,40,49,1035,40,2014-08-02T21:50:00,0,20937255,195525
OK,40,49,1035,40,2014-08-02T21:55:00,0,20937704,195525
OK,40,49,1035,40,2014-08-02T22:00:00,0,20938153,195525
OK,40,49,1035,40,2014-08-02T22:05:00,0,20938602,195525
OK,56,35,1035,56,2014-08-02T22:10:00,2,20939051,195525
OK,44,44,1035,44,2014-08-02T22:15:00,1,20939500,195525
OK,44,44,1035,44,2014-08-02T22:20:00,0,20939949,195525
OK,44,44,1035,44,2014-08-02T22:25:00,0,20940398,195525
OK,59,33,1035,59,2014-08-02T22:30:00,1,20940847,195525
OK,52,37,1035,52,2014-08-02T22:35:00,2,20941296,195525
OK,46,42,1035,46,2014-08-02T22:40:00,0,20941745,195525
OK,44,44,1035,44,2014-08-02T22:45:00,2,20942194,195525
OK,36,54,1035,36,2014-08-02T22:50:00,1,20942643,195525
OK,36,54,1035,36,2014-08-02T22:55:00,0,20943092,195525
OK,36,54,1035,36,2014-08-02T23:00:00,0,20943541,195525
OK,36,54,1035,36,2014-08-02T23:10:00,0,20943990,195525
OK,34,57,1035,34,2014-08-02T23:15:00,1,20944439,195525
OK,34,57,1035,34,2014-08-02T23:20:00,0,20944888,195525
OK,34,57,1035,34,2014-08-02T23:25:00,0,20945337,195525
OK,34,57,1035,34,2014-08-02T23:30:00,0,20945786,195525
OK,34,57,1035,34,2014-08-02T23:35:00,0,20946235,195525
OK,34,57,1035,34,2014-08-02T23:40:00,0,20946684,195525
OK,34,57,1035,34,2014-08-02T23:45:00,0,20947133,195525
OK,34,57,1035,34,2014-08-02T23:50:00,0,20947582,195525
OK,34,57,1035,34,2014-08-02T23:55:00,0,20948031,195525
OK,34,57,1035,34,2014-08-03T00:00:00,0,20948480,195525
OK,34,57,1035,34,2014-08-03T00:05:00,0,20948929,195525
OK,34,57,1035,34,2014-08-03T00:10:00,0,20949377,195525
OK,34,57,1035,34,2014-08-03T00:15:00,0,20949826,195525
OK,34,57,1035,34,2014-08-03T00:20:00,0,20950275,195525
OK,34,57,1035,34,2014-08-03T00:25:00,0,20950724,195525
OK,34,57,1035,34,2014-08-03T00:30:00,0,20951173,195525
OK,34,57,1035,34,2014-08-03T00:35:00,0,20951622,195525
OK,34,57,1035,34,2014-08-03T00:40:00,0,20952071,195525
OK,34,57,1035,34,2014-08-03T00:45:00,0,20952520,195525
OK,34,57,1035,34,2014-08-03T00:50:00,0,20952969,195525
OK,34,57,1035,34,2014-08-03T00:55:00,0,20953418,195525
OK,34,57,1035,34,2014-08-03T01:00:00,0,20953867,195525
OK,34,57,1035,34,2014-08-03T01:05:00,0,20954316,195525
OK,34,57,1035,34,2014-08-03T01:10:00,0,20954765,195525
OK,34,57,1035,34,2014-08-03T01:15:00,0,20955214,195525
OK,34,57,1035,34,2014-08-03T01:20:00,0,20955663,195525
OK,34,57,1035,34,2014-08-03T01:25:00,0,20956112,195525
OK,34,57,1035,34,2014-08-03T01:30:00,0,20956561,195525
OK,34,57,1035,34,2014-08-03T01:35:00,0,20957010,195525
OK,34,57,1035,34,2014-08-03T01:40:00,0,20957459,195525
OK,34,57,1035,34,2014-08-03T01:45:00,0,20957908,195525
OK,34,57,1035,34,2014-08-03T01:50:00,0,20958357,195525
OK,34,57,1035,34,2014-08-03T01:55:00,0,20958806,195525
OK,34,57,1035,34,2014-08-03T02:00:00,0,20959255,195525
OK,34,57,1035,34,2014-08-03T02:05:00,0,20959704,195525
OK,34,57,1035,34,2014-08-03T02:10:00,0,20960153,195525
OK,34,57,1035,34,2014-08-03T02:15:00,0,20960602,195525
OK,34,57,1035,34,2014-08-03T02:20:00,0,20961051,195525
OK,34,57,1035,34,2014-08-03T02:25:00,0,20961500,195525
OK,34,57,1035,34,2014-08-03T02:30:00,0,20961949,195525
OK,34,57,1035,34,2014-08-03T02:35:00,0,20962398,195525
OK,34,57,1035,34,2014-08-03T02:40:00,0,20962847,195525
OK,34,57,1035,34,2014-08-03T02:45:00,0,20963296,195525
OK,34,57,1035,34,2014-08-03T02:50:00,0,20963745,195525
OK,34,57,1035,34,2014-08-03T02:55:00,0,20964194,195525
OK,34,57,1035,34,2014-08-03T03:00:00,0,20964643,195525
OK,34,57,1035,34,2014-08-03T03:05:00,0,20965092,195525
OK,34,57,1035,34,2014-08-03T03:10:00,0,20965541,195525
OK,34,57,1035,34,2014-08-03T03:15:00,0,20965990,195525
OK,34,57,1035,34,2014-08-03T03:20:00,0,20966439,195525
OK,34,57,1035,34,2014-08-03T03:25:00,0,20966888,195525
OK,34,57,1035,34,2014-08-03T03:30:00,0,20967337,195525
OK,34,57,1035,34,2014-08-03T03:35:00,0,20967786,195525
OK,34,57,1035,34,2014-08-03T03:40:00,0,20968235,195525
OK,34,57,1035,34,2014-08-03T03:45:00,0,20968684,195525
OK,34,57,1035,34,2014-08-03T03:50:00,0,20969133,195525
OK,34,57,1035,34,2014-08-03T03:55:00,0,20969582,195525
OK,34,57,1035,34,2014-08-03T05:00:00,0,20975048,195525
OK,34,57,1035,34,2014-08-03T06:00:00,0,20980018,195525
OK,34,57,1035,34,2014-08-03T06:05:00,0,20980467,195525
OK,34,57,1035,34,2014-08-03T06:10:00,0,20980916,195525
OK,34,57,1035,34,2014-08-03T06:15:00,0,20981365,195525
OK,34,57,1035,34,2014-08-03T06:20:00,0,20981814,195525
OK,34,57,1035,34,2014-08-03T06:25:00,0,20982263,195525
OK,34,57,1035,34,2014-08-03T06:30:00,0,20982712,195525
OK,34,57,1035,34,2014-08-03T06:35:00,0,20983161,195525
OK,34,57,1035,34,2014-08-03T06:40:00,0,20983610,195525
OK,34,57,1035,34,2014-08-03T06:45:00,0,20984059,195525